Find STARLINK-37301

NORAD ID: 70587 Constellation: starlink operational
LEOCIRCULAR

Live-Position

3D-Globus wird geladen...

Über STARLINK-37301

Beschreibung wird geladen...

Nächste Überflüge

Passes for default location (London). Set your location on the main map for personalized predictions.

Höhenverlauf

Loading altitude history...

Zweizeiliger Elementsatz

1 70587C 26099D 26122.91576389 -.00453480 00000+0 -56187-3 0 1227
2 70587 53.1633 22.4267 0004536 288.5481 331.5572 16.07279251 14
Epoch: 2. Mai 2026 • Age: 31 hours